Volver al catálogo

FENGYUN 1C DEB

ActivoPO
NORAD 38512·DEBRIS·🇨🇳 China

Lanzado May 10, 1999 desde Taiyuan Satellite Launch Center

Loading…

Próximos Pases (próximas 24 horas)

TLE

ActualizadoSource: Space-Track

Época: Sep 12, 2026, 13:36 UTC

1 38512U 99025ESX 26255.56679443  .00000713  00000-0  65308-3 0  9994
2 38512  98.3588 108.9319 0227175  86.3826 276.3274 13.74625146633316

Sigue FENGYUN 1C DEB en tiempo real con AllMySat

Download on the App Store